Terug naar catalogus

THORAD AGENA D DEB

ActiefPO
NORAD 4912·DEBRIS·🇺🇸 United States

Gelanceerd Apr 8, 1970 vanaf Vandenberg Space Force Base

Loading…

Volgende Passages

TLE

Source: Space-Track
1 04912U 70025FJ  26224.29554655  .00001230  00000-0  52497-3 0  9993
2 04912  99.7255 351.8446 0037746 145.4005 214.9639 14.26826621862099

Volg THORAD AGENA D DEB in realtime met AllMySat

Download on the App Store